When you browse on this site, cookies collect data to enhance your experience and personalize the content and advertising you see.
Visit our Privacy Policy to learn more. By continuing to use the site, you agree to this use of cookies and data.
  • Em Portugal
  • Lista de países
  • Para 7 dias
  • Temperatura da água
  • Mapas de satélite
  • Mapa do tempo
  • Widgets de tempo
  • user-avatar
    Iniciar Sessão

    Previsão horária em Emilewo

    Hoje, 17 Junho, Segunda-feira

    Tempo Temperatura Precipitação Vento Pressão Humidade
    00:00 +14°C° 0 mm 3 m/s 756 mmHg 83%
    01:00 +13°C° 0 mm 3 m/s 756 mmHg 80%
    02:00 +13°C° 0 mm 3 m/s 756 mmHg 82%
    03:00 +12°C° 0 mm 3 m/s 756 mmHg 83%
    04:00 +13°C° 0 mm 2 m/s 756 mmHg 85%
    05:00 +13°C° 0 mm 3 m/s 756 mmHg 82%
    06:00 +16°C° 0 mm 3 m/s 757 mmHg 79%
    07:00 +17°C° 0 mm 3 m/s 757 mmHg 78%
    08:00 +19°C° 0 mm 3 m/s 757 mmHg 72%
    09:00 +20°C° 0 mm 3 m/s 757 mmHg 67%
    10:00 +21°C° 0 mm 4 m/s 757 mmHg 61%
    11:00 +22°C° 0 mm 3 m/s 757 mmHg 59%
    12:00 +24°C° 0 mm 3 m/s 757 mmHg 58%
    13:00 +24°C° 0 mm 3 m/s 757 mmHg 56%
    14:00 +24°C° 0 mm 3 m/s 756 mmHg 56%
    15:00 +24°C° 0 mm 3 m/s 756 mmHg 57%
    16:00 +24°C° 0 mm 3 m/s 756 mmHg 57%
    17:00 +22°C° 0 mm 3 m/s 756 mmHg 63%
    18:00 +21°C° 0 mm 3 m/s 756 mmHg 69%
    19:00 +20°C° 0 mm 3 m/s 756 mmHg 75%
    20:00 +19°C° 0 mm 2 m/s 756 mmHg 76%
    21:00 +17°C° 0 mm 2 m/s 756 mmHg 77%
    22:00 +16°C° 0 mm 2 m/s 757 mmHg 78%
    23:00 +15°C° 0 mm 2 m/s 757 mmHg 79%

    Amanhã, 18 Junho, Terça-feira

    Tempo Temperatura Precipitação Vento Pressão Humidade
    00:00 +15°C° 0 mm 2 m/s 757 mmHg 80%
    01:00 +14°C° 0 mm 2 m/s 757 mmHg 81%
    02:00 +14°C° 0 mm 2 m/s 757 mmHg 82%
    03:00 +14°C° 0 mm 2 m/s 756 mmHg 84%
    04:00 +13°C° 0 mm 2 m/s 756 mmHg 85%
    05:00 +14°C° 0 mm 3 m/s 756 mmHg 82%
    06:00 +16°C° 0 mm 3 m/s 757 mmHg 79%
    07:00 +18°C° 0 mm 3 m/s 757 mmHg 76%
    08:00 +19°C° 0 mm 3 m/s 757 mmHg 70%
    09:00 +21°C° 0 mm 4 m/s 756 mmHg 65%
    10:00 +22°C° 0 mm 4 m/s 756 mmHg 60%
    11:00 +23°C° 0 mm 4 m/s 756 mmHg 58%
    12:00 +23°C° 0 mm 4 m/s 755 mmHg 56%
    13:00 +25°C° 0 mm 4 m/s 755 mmHg 55%
    14:00 +25°C° 0 mm 4 m/s 755 mmHg 56%
    15:00 +25°C° 0 mm 4 m/s 754 mmHg 57%
    16:00 +25°C° 0 mm 4 m/s 754 mmHg 58%
    17:00 +23°C° 0 mm 4 m/s 754 mmHg 64%
    18:00 +22°C° 0 mm 3 m/s 753 mmHg 69%
    19:00 +21°C° 0 mm 3 m/s 753 mmHg 75%
    20:00 +20°C° 0 mm 3 m/s 753 mmHg 78%
    21:00 +19°C° 0 mm 3 m/s 753 mmHg 80%
    22:00 +18°C° 0 mm 3 m/s 753 mmHg 83%
    23:00 +18°C° 0 mm 3 m/s 753 mmHg 84%

    Depois de amanhã, 19 Junho, Quarta-feira

    Tempo Temperatura Precipitação Vento Pressão Humidade
    00:00 +17°C° 0 mm 3 m/s 753 mmHg 85%
    01:00 +17°C° 0 mm 3 m/s 752 mmHg 87%
    02:00 +17°C° 0 mm 3 m/s 752 mmHg 87%
    03:00 +17°C° 0 mm 3 m/s 752 mmHg 88%
    04:00 +16°C° 0 mm 3 m/s 752 mmHg 89%
    05:00 +18°C° 0 mm 3 m/s 752 mmHg 86%
    06:00 +20°C° 0 mm 4 m/s 751 mmHg 83%
    07:00 +21°C° 0 mm 4 m/s 751 mmHg 80%
    08:00 +22°C° 0 mm 4 m/s 751 mmHg 78%
    09:00 +25°C° 0 mm 4 m/s 751 mmHg 75%
    10:00 +26°C° 0 mm 4 m/s 751 mmHg 73%
    11:00 +26°C° 0 mm 4 m/s 750 mmHg 72%
    12:00 +26°C° 0 mm 4 m/s 750 mmHg 71%
    13:00 +27°C° 0 mm 3 m/s 749 mmHg 71%
    14:00 +27°C° 0 mm 3 m/s 749 mmHg 68%
    15:00 +27°C° 0 mm 2 m/s 749 mmHg 66%
    16:00 +28°C° 0 mm 1 m/s 749 mmHg 64%
    17:00 +27°C° 0 mm 1 m/s 748 mmHg 68%
    18:00 +26°C° 0 mm 1 m/s 748 mmHg 71%
    19:00 +25°C° 0 mm 1 m/s 748 mmHg 75%
    20:00 +24°C° 0 mm 1 m/s 748 mmHg 77%
    21:00 +23°C° 0 mm 2 m/s 748 mmHg 80%
    22:00 +21°C° 0 mm 2 m/s 749 mmHg 82%
    23:00 +21°C° 0 mm 2 m/s 748 mmHg 83%

    20 Junho, Quinta-feira

    Tempo Temperatura Precipitação Vento Pressão Humidade
    00:00 +20°C° 0 mm 2 m/s 748 mmHg 84%
    01:00 +20°C° 0 mm 2 m/s 748 mmHg 85%
    02:00 +20°C° 0 mm 2 m/s 748 mmHg 85%
    03:00 +20°C° 0 mm 2 m/s 748 mmHg 84%
    04:00 +19°C° 0 mm 2 m/s 748 mmHg 84%
    05:00 +21°C° 0 mm 2 m/s 748 mmHg 80%
    06:00 +23°C° 0 mm 2 m/s 748 mmHg 76%
    07:00 +25°C° 0 mm 1 m/s 748 mmHg 73%
    08:00 +26°C° 0.1 mm 1 m/s 749 mmHg 69%
    09:00 +27°C° 0.1 mm 1 m/s 749 mmHg 65%
    10:00 +28°C° 0.1 mm 1 m/s 749 mmHg 62%
    11:00 +29°C° 0.1 mm 1 m/s 749 mmHg 58%
    12:00 +30°C° 0.1 mm 1 m/s 749 mmHg 54%
    13:00 +30°C° 0.1 mm 1 m/s 749 mmHg 50%
    14:00 +30°C° 0 mm 1 m/s 749 mmHg 50%
    15:00 +30°C° 0 mm 1 m/s 749 mmHg 50%
    16:00 +30°C° 0 mm 1 m/s 749 mmHg 50%
    17:00 +29°C° 0 mm 1 m/s 749 mmHg 57%
    18:00 +28°C° 0 mm 1 m/s 749 mmHg 64%
    19:00 +27°C° 0 mm 2 m/s 749 mmHg 70%
    20:00 +25°C° 0 mm 2 m/s 749 mmHg 74%
    21:00 +24°C° 0 mm 1 m/s 749 mmHg 78%
    22:00 +23°C° 0 mm 1 m/s 749 mmHg 81%
    23:00 +22°C° 0 mm 1 m/s 749 mmHg 84%

    21 Junho, Sexta-feira

    Tempo Temperatura Precipitação Vento Pressão Humidade
    00:00 +22°C° 0 mm 1 m/s 749 mmHg 86%
    01:00 +21°C° 0 mm 1 m/s 749 mmHg 88%
    02:00 +21°C° 0 mm 1 m/s 749 mmHg 89%
    03:00 +21°C° 0 mm 1 m/s 749 mmHg 90%
    04:00 +20°C° 0 mm 1 m/s 749 mmHg 92%
    05:00 +22°C° 0.1 mm 1 m/s 749 mmHg 87%
    06:00 +23°C° 0.1 mm 1 m/s 749 mmHg 82%
    07:00 +25°C° 0.1 mm 1 m/s 749 mmHg 76%
    08:00 +26°C° 1 mm 1 m/s 749 mmHg 70%
    09:00 +28°C° 1 mm 1 m/s 749 mmHg 64%
    10:00 +29°C° 1 mm 1 m/s 749 mmHg 58%
    11:00 +29°C° 0.2 mm 2 m/s 749 mmHg 57%
    12:00 +29°C° 0.2 mm 2 m/s 749 mmHg 56%
    13:00 +30°C° 0.2 mm 3 m/s 749 mmHg 56%
    14:00 +29°C° 1.1 mm 4 m/s 749 mmHg 61%
    15:00 +28°C° 1.1 mm 4 m/s 749 mmHg 67%
    16:00 +27°C° 1.1 mm 5 m/s 749 mmHg 73%
    17:00 +26°C° 0.2 mm 5 m/s 750 mmHg 77%
    18:00 +25°C° 0.2 mm 4 m/s 750 mmHg 81%
    19:00 +23°C° 0.2 mm 4 m/s 750 mmHg 85%
    20:00 +21°C° 0 mm 3 m/s 751 mmHg 88%
    21:00 +20°C° 0 mm 3 m/s 751 mmHg 91%
    22:00 +19°C° 0 mm 3 m/s 752 mmHg 94%
    23:00 +18°C° 0 mm 3 m/s 752 mmHg 95%

    22 Junho, Sábado

    Tempo Temperatura Precipitação Vento Pressão Humidade
    00:00 +18°C° 0 mm 3 m/s 752 mmHg 96%
    01:00 +17°C° 0 mm 3 m/s 752 mmHg 97%
    02:00 +17°C° 0 mm 3 m/s 753 mmHg 97%
    03:00 +16°C° 0 mm 3 m/s 753 mmHg 97%
    04:00 +16°C° 0 mm 3 m/s 753 mmHg 97%
    05:00 +17°C° 0 mm 3 m/s 753 mmHg 93%
    06:00 +17°C° 0 mm 4 m/s 754 mmHg 88%
    07:00 +18°C° 0 mm 4 m/s 754 mmHg 83%
    08:00 +19°C° 0 mm 4 m/s 754 mmHg 78%
    09:00 +20°C° 0 mm 4 m/s 754 mmHg 72%
    10:00 +21°C° 0 mm 4 m/s 754 mmHg 67%
    11:00 +22°C° 0 mm 4 m/s 754 mmHg 64%
    12:00 +22°C° 0 mm 5 m/s 754 mmHg 61%
    13:00 +23°C° 0 mm 5 m/s 754 mmHg 58%
    14:00 +23°C° 0 mm 5 m/s 754 mmHg 60%
    15:00 +23°C° 0 mm 5 m/s 754 mmHg 61%
    16:00 +23°C° 0 mm 5 m/s 753 mmHg 63%
    17:00 +22°C° 0 mm 5 m/s 753 mmHg 66%
    18:00 +21°C° 0 mm 5 m/s 753 mmHg 70%
    19:00 +20°C° 0 mm 5 m/s 754 mmHg 74%
    20:00 +19°C° 0 mm 5 m/s 754 mmHg 71%
    21:00 +19°C° 0 mm 6 m/s 754 mmHg 68%
    22:00 +17°C° 0 mm 6 m/s 754 mmHg 66%
    23:00 +16°C° 0 mm 6 m/s 754 mmHg 69%
    Mostrar mais